Theta_e
325 324 326 336 333 333 338 338 341 341 339 342 341 340 340 342 342 336 340 342 341 338 326 335 336 333 321 321 323 326 328 328 328 331 334 336 336 335 335 332 327 325 326 330 334 338 340 339 337
324 322 329 332 329 331 331 334 339 337 336 339 341 341 341 341 345 344 342 343 343 338 328 331 337 335 325 322 321 322 322 325 327 327 328 329 330 329 329 328 327 325 326 330 335 337 337 337 338
321 323 327 322 325 330 330 332 335 336 337 339 334 336 336 342 344 344 343 343 344 340 328 330 336 335 330 325 325 323 322 322 323 325 325 325 325 325 326 326 326 324 327 330 332 334 331 327 327
320 326 326 326 329 326 329 328 331 330 336 337 335 332 335 340 344 344 344 345 343 340 327 330 335 335 333 329 329 329 327 324 323 323 323 323 324 324 324 324 324 324 326 329 331 333 333 331 329
317 324 321 322 322 323 322 325 325 332 335 337 336 332 335 342 343 342 343 343 345 338 329 329 333 336 335 332 331 331 332 331 327 324 323 323 323 324 324 325 326 326 327 327 328 329 330 330 331
322 321 319 320 319 318 316 320 329 334 338 338 336 333 336 339 342 342 344 345 343 335 329 326 331 335 335 334 332 332 332 331 330 329 326 324 324 324 325 324 324 324 323 323 322 324 327 329 330
319 315 319 319 316 315 318 320 332 336 337 338 334 332 335 339 341 343 345 346 341 334 329 326 330 333 335 334 334 332 330 328 328 328 328 325 324 324 324 324 324 324 323 321 319 319 321 323 323
321 313 317 313 314 316 317 320 322 337 336 337 333 332 336 336 341 343 346 346 341 334 331 328 331 333 334 333 333 333 331 329 326 325 325 324 323 323 323 324 325 326 326 324 321 318 317 319 321
318 310 311 314 315 316 317 316 321 328 333 336 334 336 336 339 340 343 346 339 336 334 330 329 331 332 333 332 331 332 332 330 325 324 324 323 323 323 322 323 324 325 326 326 326 324 320 315 315
312 309 312 312 314 316 315 316 318 322 329 336 336 338 338 341 344 345 344 340 338 334 330 328 330 330 331 331 330 328 329 328 324 323 323 322 322 322 322 322 322 323 324 325 325 325 325 324 321
312 313 313 316 316 316 315 320 340 331 320 332 335 338 341 342 343 344 345 345 344 337 332 329 327 328 329 326 325 325 324 323 323 323 323 323 322 322 322 322 321 321 322 323 324 325 327 330 333
315 315 314 317 318 318 323 328 341 341 341 339 332 337 341 343 343 344 336 330 337 341 341 333 331 328 327 327 326 322 321 321 322 322 322 322 323 323 323 322 322 322 322 322 323 326 334 336 336
314 315 315 318 331 337 339 338 339 337 337 339 340 341 341 342 343 343 341 331 331 334 338 342 339 336 330 326 325 323 321 321 322 322 323 323 323 324 323 323 323 323 323 323 324 326 335 337 338
317 317 317 316 333 338 337 336 338 335 335 339 342 343 345 343 340 339 340 337 333 339 337 338 340 343 341 332 326 323 323 324 324 325 328 331 331 329 328 327 327 326 326 326 329 329 335 338 340
317 316 316 322 321 335 335 336 333 334 343 347 348 346 346 347 345 346 346 343 342 344 342 340 337 337 339 343 338 327 329 328 328 329 329 330 331 333 332 332 329 329 329 332 336 336 336 338 339
315 313 315 320 326 332 337 338 330 338 340 343 348 349 348 348 347 347 348 348 347 346 342 339 337 338 343 345 343 334 330 330 336 336 340 338 337 335 334 336 336 333 334 336 338 339 339 340 339
312 317 317 328 328 330 334 333 330 336 341 343 344 343 346 347 346 345 345 345 344 336 343 343 339 339 340 341 342 340 337 337 339 338 337 334 333 332 334 333 330 334 337 338 337 338 338 338 336
319 319 323 330 329 330 330 332 330 334 343 344 340 338 342 344 344 341 343 339 334 333 333 331 329 330 336 336 339 341 341 339 333 330 336 332 333 331 328 335 332 331 334 337 333 335 334 334 334
318 324 330 330 329 329 330 332 331 333 336 341 338 332 335 336 334 326 321 320 320 320 320 318 317 319 320 317 321 331 337 337 337 335 331 330 331 327 332 329 327 331 335 334 328 331 330 334 333
319 319 327 328 330 329 330 329 329 334 335 339 340 334 326 324 322 320 318 317 316 316 317 317 317 317 317 316 317 321 325 329 335 336 336 333 331 331 332 332 331 330 327 328 332 332 333 333 336
320 318 322 324 330 328 329 329 329 333 339 336 336 337 329 326 325 321 318 319 319 320 320 319 318 319 319 317 316 315 317 323 327 329 333 336 337 336 334 334 331 331 329 330 330 330 331 332 337
321 319 319 329 326 328 323 334 330 331 337 337 339 337 330 328 327 323 321 322 323 323 322 321 320 319 318 317 316 314 314 317 322 327 332 332 334 334 333 331 332 331 329 328 335 332 334 339 340
322 324 322 324 320 326 327 330 329 331 338 337 337 334 330 328 327 325 324 323 323 323 322 321 320 319 317 315 315 314 314 317 317 321 326 332 332 331 330 331 335 336 335 334 335 335 337 338 340
321 322 319 319 322 328 328 329 330 332 337 335 336 335 331 328 327 326 324 324 324 324 324 322 320 318 316 318 316 316 316 317 317 317 317 325 329 328 328 327 327 328 329 329 331 336 336 336 335
320 319 321 322 323 328 325 333 331 332 332 333 335 334 331 329 328 325 324 323 322 322 321 319 318 316 315 317 318 316 316 317 318 320 320 320 322 324 328 327 326 327 328 329 333 333 334 334 335
322 320 322 329 324 324 328 335 332 330 329 331 335 333 331 330 327 324 324 321 321 318 315 315 318 314 315 316 316 317 317 318 319 319 318 321 321 322 325 326 327 326 328 327 329 328 330 330 333
322 323 320 319 320 326 327 331 328 327 325 330 331 330 328 325 324 324 322 321 319 315 314 314 315 314 316 317 315 315 314 315 316 318 319 319 320 322 322 322 325 325 327 327 326 327 327 327 326
321 319 321 318 323 326 323 333 331 329 326 323 323 325 324 324 324 321 316 315 314 314 315 315 314 315 315 315 315 314 313 312 312 312 313 315 317 318 318 319 321 324 325 324 324 324 323 323 322
318 319 317 316 318 319 322 331 325 323 322 320 320 321 319 317 316 315 314 315 315 315 315 315 315 316 316 316 314 314 313 311 311 313 314 312 313 314 317 319 319 322 324 323 323 323 323 321 321
320 321 315 319 320 318 322 328 320 319 320 320 319 317 316 315 315 315 315 315 315 315 316 317 317 317 316 315 314 313 311 312 315 317 317 317 316 317 318 321 322 323 323 322 321 322 322 322 321
Wind_Speed
5 5 5 2 3 4 4 5 2 3 3 5 4 3 5 3 3 4 1 13 10 19 24 26 25 21 18 18 18 20 21 21 21 22 23 23 23 20 19 19 20 20 20 19 18 17 17 17 15
3 6 4 2 4 3 4 5 5 8 3 1 4 2 2 4 2 3 2 13 10 19 23 26 27 24 20 18 18 18 19 20 21 22 23 23 21 20 19 19 19 19 19 18 18 17 16 16 16
1 3 3 4 2 3 4 6 11 9 12 4 3 3 3 3 2 2 3 10 6 17 23 26 27 25 22 20 19 18 17 17 18 20 20 20 20 19 18 18 18 18 18 18 17 16 15 14 15
1 0 3 3 4 8 6 9 11 3 7 9 2 4 3 3 0 2 4 5 7 14 23 25 27 27 24 23 21 20 19 18 18 18 19 19 18 18 17 16 16 16 17 17 16 16 15 16 16
3 1 3 1 5 6 6 10 6 1 8 3 4 4 3 2 2 5 8 8 8 13 18 24 25 27 25 24 23 21 20 19 19 19 19 18 18 18 17 17 16 16 17 17 18 18 18 18 18
2 2 3 2 5 6 8 9 2 3 4 4 2 3 2 5 5 7 9 10 13 14 17 22 23 26 25 23 22 22 21 20 19 19 18 19 19 19 18 18 17 17 17 17 17 18 18 19 20
5 4 3 3 5 6 5 22 3 1 5 5 2 2 2 7 7 8 10 12 15 16 15 19 22 25 25 24 23 21 20 19 19 19 19 19 19 19 19 18 18 16 15 15 15 17 19 20 21
3 4 1 4 3 6 7 21 10 5 4 1 7 5 3 11 9 10 12 14 16 16 14 19 23 24 25 25 24 22 21 19 19 19 19 19 19 19 19 19 19 18 17 16 15 15 17 19 21
3 4 2 4 2 6 5 8 8 4 3 3 9 10 7 11 11 13 14 14 14 14 15 20 23 25 25 24 24 23 23 21 21 21 20 20 20 20 20 20 20 19 18 18 17 15 15 16 19
4 3 6 4 4 5 13 4 15 12 6 2 8 15 12 14 13 12 9 10 14 16 17 21 23 25 26 26 25 25 26 25 24 23 22 21 21 21 21 21 21 21 21 21 20 18 17 17 17
3 3 4 7 10 7 6 7 12 9 5 9 18 13 8 15 13 10 6 7 15 18 20 21 24 25 27 25 25 26 26 26 26 25 23 23 23 22 23 22 22 22 23 23 23 22 21 19 17
2 10 6 6 4 5 4 5 9 23 14 20 12 6 13 14 12 7 5 9 14 17 21 24 23 25 28 28 28 28 26 25 25 24 24 24 24 25 25 25 25 25 24 24 24 22 20 20 18
4 4 4 7 11 16 24 17 13 28 28 19 22 22 23 14 6 4 7 6 22 19 19 25 27 27 29 30 30 30 30 26 25 24 24 25 26 28 28 27 27 26 25 25 25 24 23 22 21
7 5 6 2 14 14 17 16 8 25 22 28 33 33 29 22 11 6 11 15 26 28 20 22 23 29 33 34 32 32 31 29 27 28 28 29 30 31 32 32 31 29 29 28 26 26 26 26 25
4 4 4 10 4 5 10 14 13 25 23 32 33 32 29 25 15 13 9 13 24 27 31 24 32 34 35 36 33 33 29 27 28 30 32 33 33 32 33 32 31 30 28 27 26 26 25 27 26
7 6 4 5 9 8 8 3 10 20 22 26 26 33 32 31 27 24 21 21 25 31 27 12 10 16 20 26 28 27 25 26 24 25 25 24 17 20 18 23 30 30 31 32 31 27 25 26 26
7 2 3 3 15 3 7 3 11 17 17 19 26 30 29 28 31 30 30 33 36 27 32 32 19 12 16 20 22 15 19 18 12 9 3 13 20 30 19 21 32 37 40 33 31 32 17 28 29
2 3 5 5 7 17 13 7 6 12 16 18 23 27 31 32 28 27 29 32 35 34 35 36 36 34 25 20 13 9 9 5 28 39 30 38 38 35 46 32 33 42 39 36 30 26 20 31 33
3 5 9 2 3 10 4 6 7 8 12 14 17 28 32 30 26 28 31 33 36 39 40 41 41 39 36 35 32 27 22 18 16 25 30 29 33 18 28 27 28 24 31 38 36 31 25 33 30
3 7 4 6 3 7 4 8 5 9 5 7 9 20 33 27 27 28 29 30 35 36 36 35 36 36 37 36 33 27 22 19 16 14 14 13 21 17 22 21 27 30 32 29 15 25 26 29 27
3 5 5 7 3 5 1 5 7 5 11 6 3 8 28 28 21 23 25 26 32 33 32 31 31 33 34 34 31 28 23 19 17 15 14 10 16 21 28 28 29 30 31 18 20 28 26 33 31
2 5 5 14 5 4 2 2 6 5 7 9 15 12 26 24 17 20 22 24 28 30 30 30 31 31 31 31 32 29 26 20 18 17 14 14 14 16 20 22 23 25 26 32 35 37 34 23 20
3 5 6 4 4 5 5 5 5 5 4 6 15 16 16 15 16 19 18 21 25 26 27 29 30 32 32 28 23 26 23 20 19 18 17 15 15 16 20 22 25 28 29 30 31 25 20 18 19
4 5 7 5 3 4 3 4 4 3 3 3 5 3 5 10 12 13 14 18 19 21 26 27 29 29 27 24 25 23 23 28 29 26 21 18 16 18 18 18 21 25 26 27 24 23 21 21 21
8 7 4 5 5 3 4 4 5 3 0 4 7 4 1 2 6 10 14 19 21 24 24 24 26 28 27 22 22 23 25 26 24 25 24 23 23 20 17 20 21 19 19 16 15 16 18 18 17
4 5 5 2 1 2 5 2 2 3 9 7 8 6 2 2 5 11 15 17 21 25 25 22 20 23 25 25 27 28 27 23 21 21 23 21 21 23 21 21 22 20 17 13 10 8 9 10 10
2 5 4 6 3 3 2 1 3 4 4 6 7 4 2 3 7 8 11 15 22 23 24 25 25 28 27 28 29 31 28 25 23 21 21 20 19 19 21 23 23 18 14 8 6 5 4 5 6
5 4 4 4 2 1 3 1 3 5 3 4 5 4 4 5 5 8 12 16 15 16 20 20 25 28 28 31 35 33 29 27 26 24 24 23 20 19 20 19 22 21 15 11 6 4 6 6 8
6 4 6 5 3 4 2 3 4 3 2 4 8 10 10 9 9 11 15 15 15 16 19 21 22 22 27 33 36 36 36 38 36 31 24 21 20 20 18 15 17 20 21 15 12 9 9 9 9
2 2 4 5 3 2 3 3 5 5 11 12 10 8 7 8 11 14 16 17 19 22 22 16 18 24 31 33 33 34 37 39 32 25 24 20 16 16 15 13 15 15 15 16 16 15 14 13 12
Wind_Direction
288 341 359 89 53 56 281 265 292 238 250 214 257 141 184 239 190 220 218 172 170 185 179 178 178 178 179 176 171 168 169 169 170 171 173 177 177 178 180 181 179 180 180 179 181 181 179 180 181
293 332 350 73 80 33 271 272 258 245 265 178 229 86 15 267 271 345 100 167 176 190 185 181 180 180 182 178 174 171 170 169 171 173 176 179 181 183 184 183 184 186 187 188 188 187 189 190 195
311 314 335 83 119 191 244 229 231 255 265 227 43 243 240 230 9 19 118 163 183 196 192 185 183 182 184 183 179 175 174 175 176 177 179 181 183 185 187 188 190 192 195 198 199 199 198 200 203
70 23 55 76 270 250 235 268 238 286 89 179 296 270 245 184 41 14 146 152 152 193 192 190 187 184 186 187 185 182 182 182 183 185 187 189 189 189 193 194 197 200 205 209 212 214 214 215 215
213 110 52 29 255 264 250 272 305 197 130 179 204 261 216 155 204 129 147 155 166 181 195 194 190 189 190 193 193 191 191 192 192 192 193 194 195 197 198 199 204 208 213 217 220 222 222 221 222
115 98 50 293 271 273 292 316 324 131 115 170 226 231 212 142 136 145 173 175 186 190 199 195 192 192 195 199 202 202 202 203 201 201 201 201 202 204 207 210 214 217 219 222 227 229 230 230 230
134 94 199 247 271 307 288 344 21 153 153 233 196 223 258 163 150 164 179 177 188 199 200 193 194 196 200 204 209 212 213 212 209 208 209 210 212 213 214 217 220 222 224 228 231 233 233 235 235
181 92 159 246 278 286 326 347 321 218 229 340 187 252 278 183 168 175 183 185 194 201 205 198 197 200 205 208 213 219 222 221 220 218 218 218 220 222 223 225 227 229 231 234 237 238 237 236 238
168 61 281 257 191 273 337 1 326 295 171 177 229 284 280 186 176 186 183 194 207 217 214 210 204 205 210 214 218 222 227 226 226 226 226 226 228 229 231 233 235 237 240 242 243 246 247 246 245
109 116 226 217 222 281 315 19 337 346 359 167 257 256 262 190 156 157 169 208 223 225 224 225 221 214 215 217 221 225 228 229 229 230 231 234 235 237 239 240 242 245 247 248 249 250 251 251 249
171 199 212 283 288 312 307 73 45 5 9 324 291 293 119 138 141 152 179 275 253 241 235 232 233 231 225 226 228 231 231 233 235 237 239 242 243 243 245 247 248 250 251 253 253 253 251 250 256
342 255 227 318 4 6 4 60 65 34 336 321 298 186 137 131 143 152 102 352 292 277 260 243 244 245 239 235 235 240 242 242 243 245 249 252 255 256 254 255 255 256 260 265 266 264 261 262 264
171 263 98 307 94 79 86 57 62 28 18 70 97 93 85 90 122 165 217 343 16 320 296 268 258 254 252 246 242 243 248 250 253 255 255 257 262 264 262 264 266 269 272 273 271 266 262 264 268
206 287 329 144 96 81 81 36 49 6 31 61 87 79 75 75 69 32 334 282 288 310 299 279 271 269 265 259 255 254 255 259 260 263 267 273 277 277 278 276 277 277 277 276 272 266 267 271 276
297 41 38 23 309 136 71 35 24 17 47 56 68 79 74 68 62 42 353 302 300 317 305 275 272 280 280 270 266 265 268 282 284 284 286 289 291 287 282 281 277 277 276 274 275 266 258 261 269
16 75 67 3 360 21 97 20 14 48 47 53 54 63 63 65 57 51 43 33 27 20 13 349 285 284 289 281 285 275 274 278 299 297 293 282 308 301 302 305 286 273 269 272 270 268 269 273 274
7 38 24 45 5 76 68 123 7 48 66 68 64 60 68 61 61 56 46 46 46 31 36 27 27 355 320 310 301 292 260 262 313 328 87 5 354 337 312 308 322 292 274 271 281 276 265 267 269
353 57 60 59 342 70 62 58 14 58 72 76 76 69 67 61 55 52 48 46 51 55 48 46 45 45 46 31 14 346 319 281 301 301 274 294 299 282 282 285 279 271 271 266 273 271 263 277 274
101 90 111 131 143 65 52 66 28 65 66 74 83 83 73 67 64 62 55 49 45 42 41 43 47 51 50 48 46 42 34 12 339 274 276 278 264 246 258 257 255 292 255 264 283 270 269 268 270
118 113 87 53 20 90 149 49 339 27 20 99 92 100 90 78 67 62 61 57 57 54 50 46 42 39 38 37 36 36 32 24 10 354 272 259 235 258 277 280 274 285 282 285 289 243 266 270 275
119 124 190 131 109 26 165 35 6 340 10 57 172 70 83 73 65 65 62 60 51 48 45 41 39 36 31 30 26 22 17 12 8 360 344 316 270 265 275 280 278 266 270 239 269 288 275 281 283
89 174 167 142 118 172 53 236 343 351 328 1 20 73 61 61 61 59 51 47 49 45 39 34 31 33 28 20 15 16 11 0 352 344 338 329 316 302 289 273 277 276 254 256 278 285 286 276 263
186 89 131 122 92 107 17 77 276 352 341 344 7 36 44 43 44 48 39 39 40 33 24 21 21 20 21 26 29 17 8 357 342 330 329 315 317 319 311 289 281 282 276 275 276 276 276 253 251
122 88 55 56 81 46 312 116 282 256 284 338 323 357 20 43 47 43 33 30 23 14 5 1 7 12 13 8 9 11 7 355 346 342 325 320 315 316 321 319 300 287 281 276 270 261 264 264 257
60 53 3 19 21 198 317 56 247 323 147 244 225 239 338 44 33 21 21 18 10 7 6 0 356 355 1 358 357 358 354 350 348 344 337 328 319 318 318 324 329 315 299 285 280 266 259 259 249
59 125 139 182 191 240 357 65 266 271 304 233 204 198 196 286 10 21 13 4 3 1 360 359 356 4 2 359 355 351 348 343 339 336 336 330 324 321 315 316 321 320 310 301 288 279 264 248 222
156 55 160 105 25 80 279 338 340 349 39 141 154 144 129 34 31 20 360 356 352 347 350 356 359 358 358 357 353 348 347 342 333 324 319 319 316 319 317 315 311 316 316 308 286 266 241 226 206
105 146 52 16 85 351 328 115 252 339 11 37 72 115 58 37 28 0 354 349 357 354 352 352 355 351 349 350 350 349 350 347 340 332 323 312 303 303 311 312 307 308 294 283 256 213 195 188 187
4 25 50 107 110 157 186 260 359 321 41 66 72 87 64 35 4 350 349 349 345 341 346 348 347 345 350 349 347 346 344 343 339 334 316 300 300 299 294 291 294 291 288 275 264 243 221 207 205
38 109 111 111 223 69 133 256 350 76 88 85 68 49 24 3 357 352 349 347 341 343 343 344 346 354 351 349 347 345 345 348 350 358 347 342 320 306 308 294 288 288 282 274 265 252 230 213 202